�������l�o���
Date,Time,MP-1(��Sv/h),MP-2(��Sv/h),MP-3(��Sv/h),MP-4(��Sv/h),MP-5(��Sv/h),MP-6(��Sv/h),MP-7(��Sv/h),MP-8(��Sv/h),����,����(m/s),���J
2017/04/04,00:00,1.011,1.645,1.106,1.946,1.347,0.541,0.992,0.922,���k��,3.0,��
2017/04/04,00:10,1.012,1.643,1.106,1.946,1.346,0.540,0.993,0.921,���k��,2.5,��
2017/04/04,00:20,1.013,1.645,1.109,1.948,1.346,0.540,0.992,0.925,���k��,3.6,��
2017/04/04,00:30,1.012,1.646,1.105,1.948,1.350,0.540,0.991,0.922,���k��,3.8,��
2017/04/04,00:40,1.011,1.646,1.107,1.945,1.345,0.542,0.992,0.924,���k��,5.0,��
2017/04/04,00:50,1.010,1.648,1.107,1.944,1.346,0.541,0.992,0.922,�k��,7.0,��
2017/04/04,01:00,1.011,1.648,1.107,1.947,1.346,0.542,0.992,0.925,���k��,6.1,��
2017/04/04,01:10,1.010,1.647,1.108,1.947,1.347,0.540,0.992,0.923,���k��,5.8,��
2017/04/04,01:20,1.011,1.646,1.108,1.948,1.347,0.540,0.992,0.923,�k��,5.5,�L
2017/04/04,01:30,1.012,1.647,1.107,1.946,1.347,0.539,0.993,0.923,�k��,3.8,�L
2017/04/04,01:40,1.012,1.648,1.108,1.949,1.346,0.539,0.993,0.922,�k��,4.0,�L
2017/04/04,01:50,1.011,1.645,1.109,1.951,1.349,0.541,0.995,0.922,�k��,4.9,��
2017/04/04,02:00,1.012,1.644,1.106,1.947,1.346,0.540,0.994,0.923,�k��,4.6,��
2017/04/04,02:10,1.011,1.647,1.106,1.948,1.345,0.541,0.992,0.922,�k��,4.1,��
2017/04/04,02:20,1.010,1.645,1.107,1.945,1.347,0.542,0.993,0.924,�k��,5.0,��
2017/04/04,02:30,1.010,1.645,1.107,1.948,1.347,0.538,0.993,0.922,�k��,4.5,��
2017/04/04,02:40,1.012,1.644,1.109,1.946,1.348,0.540,0.993,0.924,�k��,5.4,��
2017/04/04,02:50,1.011,1.648,1.107,1.951,1.348,0.539,0.989,0.923,�k��,5.9,��
2017/04/04,03:00,1.010,1.646,1.107,1.949,1.346,0.540,0.994,0.925,�k��,5.9,��
2017/04/04,03:10,1.010,1.645,1.107,1.949,1.346,0.539,0.992,0.921,�k��,5.3,��
2017/04/04,03:20,1.010,1.645,1.106,1.948,1.343,0.539,0.992,0.923,�k�k��,5.3,��
2017/04/04,03:30,1.011,1.645,1.107,1.947,1.348,0.541,0.994,0.922,�k��,5.1,��
2017/04/04,03:40,1.009,1.643,1.107,1.946,1.346,0.540,0.992,0.923,�k��,5.3,��
2017/04/04,03:50,1.009,1.646,1.105,1.945,1.346,0.540,0.991,0.920,�k��,4.7,��
2017/04/04,04:00,1.010,1.643,1.107,1.947,1.346,0.538,0.991,0.921,�k��,5.7,��
2017/04/04,04:10,1.011,1.645,1.108,1.948,1.345,0.540,0.994,0.922,�k��,7.2,��
2017/04/04,04:20,1.009,1.644,1.109,1.944,1.347,0.539,0.992,0.922,�k��,6.6,��
2017/04/04,04:30,1.010,1.644,1.105,1.945,1.347,0.541,0.993,0.922,�k��,7.6,��
2017/04/04,04:40,1.010,1.646,1.106,1.944,1.345,0.540,0.993,0.923,�k��,6.7,��
2017/04/04,04:50,1.010,1.645,1.108,1.944,1.345,0.541,0.991,0.922,�k��,7.6,��
2017/04/04,05:00,1.010,1.644,1.106,1.945,1.347,0.541,0.992,0.923,�k��,7.8,��
2017/04/04,05:10,1.009,1.643,1.105,1.945,1.347,0.539,0.992,0.923,�k��,7.3,��
2017/04/04,05:20,1.009,1.644,1.106,1.946,1.346,0.539,0.993,0.925,�k��,6.5,��
2017/04/04,05:30,1.008,1.643,1.108,1.947,1.346,0.539,0.992,0.924,�k��,7.1,��
2017/04/04,05:40,1.010,1.642,1.106,1.944,1.345,0.540,0.992,0.921,�k��,6.7,��
2017/04/04,05:50,1.011,1.644,1.106,1.944,1.344,0.539,0.990,0.922,�k��,7.4,��
2017/04/04,06:00,1.007,1.643,1.106,1.946,1.346,0.540,0.994,0.923,�k��,7.3,��
2017/04/04,06:10,1.008,1.645,1.106,1.946,1.345,0.541,0.991,0.921,�k�k��,6.3,��
2017/04/04,06:20,1.008,1.644,1.108,1.949,1.344,0.540,0.992,0.921,�k�k��,6.1,��
2017/04/04,06:30,1.008,1.644,1.106,1.947,1.344,0.540,0.991,0.922,�k�k��,5.8,��
2017/04/04,06:40,1.008,1.643,1.107,1.945,1.343,0.540,0.993,0.923,�k�k��,5.5,��
2017/04/04,06:50,1.011,1.643,1.108,1.950,1.347,0.540,0.994,0.923,�k�k��,4.9,��
2017/04/04,07:00,1.011,1.646,1.106,1.948,1.349,0.540,0.995,0.924,�k�k��,4.3,��
2017/04/04,07:10,1.010,1.647,1.108,1.948,1.344,0.541,0.995,0.923,�k�k��,4.3,��
2017/04/04,07:20,1.011,1.646,1.108,1.944,1.347,0.542,0.993,0.925,�k,3.1,��
2017/04/04,07:30,1.012,1.650,1.106,1.950,1.346,0.541,0.993,0.925,�k,2.9,��
2017/04/04,07:40,1.010,1.649,1.110,1.949,1.348,0.540,0.994,0.924,�k�k��,5.0,��
2017/04/04,07:50,1.012,1.651,1.106,1.948,1.347,0.540,0.995,0.924,�k,5.1,��
2017/04/04,08:00,1.011,1.651,1.110,1.952,1.348,0.539,0.995,0.923,�k�k��,4.1,��
2017/04/04,08:10,1.010,1.648,1.108,1.951,1.346,0.539,0.994,0.923,�k�k��,4.9,��
2017/04/04,08:20,1.012,1.649,1.108,1.950,1.349,0.538,0.993,0.925,�k�k��,3.7,��
2017/04/04,08:30,1.012,1.648,1.110,1.951,1.349,0.538,0.993,0.923,�k�k��,3.0,��
2017/04/04,08:40,1.012,1.645,1.110,1.950,1.351,0.539,0.993,0.925,�k��,2.6,��
2017/04/04,08:50,1.013,1.645,1.112,1.951,1.350,0.538,0.992,0.925,�k��,2.8,��
2017/04/04,09:00,1.014,1.644,1.111,1.952,1.350,0.537,0.993,0.924,�k��,3.9,��
2017/04/04,09:10,1.013,1.648,1.110,1.956,1.354,0.540,0.992,0.923,�k��,3.5,��
2017/04/04,09:20,1.014,1.650,1.111,1.951,1.352,0.540,0.992,0.922,�k��,3.6,��
2017/04/04,09:30,1.014,1.647,1.110,1.955,1.352,0.540,0.993,0.924,�k��,3.6,��
2017/04/04,09:40,1.014,1.647,1.111,1.953,1.354,0.539,0.992,0.922,���k��,4.1,��
2017/04/04,09:50,1.016,1.645,1.112,1.954,1.354,0.541,0.993,0.922,���k��,3.9,��
2017/04/04,10:00,1.015,1.645,1.112,1.954,1.356,0.540,0.994,0.920,���k��,3.8,��
2017/04/04,10:10,1.015,1.650,1.112,1.952,1.355,0.540,0.994,0.920,���k��,3.6,��
2017/04/04,10:20,1.017,1.648,1.113,1.955,1.350,0.539,0.994,0.921,���k��,3.9,��
2017/04/04,10:30,1.018,1.649,1.110,1.956,1.356,0.540,0.992,0.922,���k��,3.5,��
2017/04/04,10:40,1.018,1.649,1.113,1.955,1.357,0.542,0.993,0.921,���k��,3.8,��
2017/04/04,10:50,1.018,1.654,1.113,1.952,1.354,0.540,0.993,0.921,��,3.4,��
2017/04/04,11:00,1.018,1.655,1.115,1.955,1.355,0.540,0.992,0.922,���쓌,2.9,��
2017/04/04,11:10,1.020,1.652,1.116,1.956,1.355,0.540,0.992,0.921,���쓌,2.6,��
2017/04/04,11:20,1.016,1.648,1.117,1.954,1.357,0.539,0.996,0.921,��,2.6,��
2017/04/04,11:30,1.019,1.644,1.114,1.956,1.357,0.538,0.992,0.922,���쓌,2.3,��
2017/04/04,11:40,1.018,1.647,1.116,1.954,1.357,0.540,0.992,0.921,���쓌,2.6,��
2017/04/04,11:50,1.020,1.651,1.116,1.959,1.358,0.539,0.994,0.922,���쓌,2.6,��
2017/04/04,12:00,1.020,1.649,1.115,1.959,1.359,0.540,0.993,0.922,��,2.2,��
2017/04/04,12:10,1.017,1.651,1.118,1.962,1.359,0.540,0.995,0.922,�쓌,3.6,��
2017/04/04,12:20,1.019,1.654,1.114,1.961,1.360,0.540,0.994,0.922,���쓌,3.0,��
2017/04/04,12:30,1.020,1.653,1.117,1.958,1.360,0.541,0.993,0.920,���쓌,3.3,��
2017/04/04,12:40,1.020,1.649,1.117,1.956,1.360,0.542,0.995,0.923,��쓌,3.4,��
2017/04/04,12:50,1.019,1.653,1.113,1.958,1.362,0.543,0.996,0.923,�쓌,4.1,��
2017/04/04,13:00,1.020,1.652,1.119,1.957,1.362,0.544,0.996,0.922,�쓌,4.7,��
2017/04/04,13:10,1.021,1.652,1.118,1.963,1.361,0.542,0.994,0.924,��쓌,4.6,��
2017/04/04,13:20,1.018,1.656,1.117,1.959,1.363,0.541,0.994,0.922,��쓌,4.2,��
2017/04/04,13:30,1.021,1.654,1.116,1.959,1.365,0.542,0.996,0.923,�쓌,2.3,��
2017/04/04,13:40,1.020,1.651,1.116,1.959,1.363,0.543,0.996,0.923,�쓌,4.1,��
2017/04/04,13:50,1.020,1.655,1.117,1.961,1.362,0.544,0.994,0.921,��쓌,4.5,��
2017/04/04,14:00,1.021,1.655,1.117,1.963,1.363,0.542,0.995,0.923,��쓌,4.3,��
2017/04/04,14:10,1.021,1.654,1.115,1.962,1.365,0.541,0.996,0.923,��쓌,4.9,��
2017/04/04,14:20,1.021,1.658,1.115,1.963,1.365,0.542,0.995,0.924,��쓌,4.4,��
2017/04/04,14:30,1.022,1.655,1.117,1.962,1.364,0.542,0.995,0.924,��쓌,5.1,��
2017/04/04,14:40,1.023,1.655,1.117,1.964,1.363,0.541,0.994,0.923,��쓌,5.1,��
2017/04/04,14:50,1.023,1.655,1.115,1.964,1.364,0.542,0.995,0.923,��쓌,4.4,��
2017/04/04,15:00,1.025,1.653,1.115,1.963,1.366,0.543,0.995,0.924,��쓌,4.4,��
2017/04/04,15:10,1.023,1.653,1.120,1.962,1.365,0.545,0.997,0.922,��쓌,4.6,��
2017/04/04,15:20,1.021,1.656,1.122,1.963,1.368,0.543,0.996,0.924,��쓌,3.9,��
2017/04/04,15:30,1.024,1.657,1.120,1.963,1.367,0.543,0.999,0.923,��쓌,4.2,��
2017/04/04,15:40,1.025,1.657,1.122,1.962,1.365,0.544,0.995,0.922,��쓌,4.1,��
2017/04/04,15:50,1.024,1.658,1.121,1.959,1.368,0.546,0.994,0.924,��쓌,3.9,��
2017/04/04,16:00,1.022,1.660,1.123,1.960,1.363,0.545,0.994,0.922,��쓌,4.2,��
2017/04/04,16:10,1.024,1.656,1.123,1.961,1.369,0.545,0.994,0.924,��쓌,4.6,��
2017/04/04,16:20,1.024,1.659,1.124,1.963,1.362,0.547,0.996,0.922,��쓌,5.1,��
2017/04/04,16:30,1.024,1.658,1.122,1.961,1.365,0.544,0.996,0.926,��쓌,4.3,��
2017/04/04,16:40,1.025,1.660,1.122,1.962,1.365,0.546,0.996,0.926,��쓌,4.5,��
2017/04/04,16:50,1.026,1.661,1.121,1.962,1.365,0.543,0.994,0.927,��쓌,4.5,��
2017/04/04,17:00,1.026,1.659,1.121,1.962,1.366,0.544,0.994,0.927,��쓌,5.2,��
2017/04/04,17:10,1.024,1.657,1.122,1.962,1.364,0.546,0.995,0.926,��,4.4,��
2017/04/04,17:20,1.023,1.660,1.121,1.962,1.366,0.546,0.994,0.928,��,5.9,��
2017/04/04,17:30,1.022,1.660,1.119,1.961,1.368,0.545,0.995,0.928,��,5.9,��
2017/04/04,17:40,1.023,1.661,1.123,1.962,1.366,0.545,0.997,0.925,��,5.5,��
2017/04/04,17:50,1.027,1.659,1.121,1.963,1.368,0.546,0.995,0.925,��,5.5,��
2017/04/04,18:00,1.024,1.658,1.122,1.963,1.369,0.544,0.997,0.926,��,5.4,��
2017/04/04,18:10,1.026,1.654,1.122,1.960,1.368,0.544,0.997,0.926,��,5.1,��
2017/04/04,18:20,1.025,1.658,1.121,1.961,1.369,0.546,0.997,0.926,��,6.0,��
2017/04/04,18:30,1.025,1.657,1.123,1.965,1.369,0.547,0.996,0.926,��,6.6,��
2017/04/04,18:40,1.025,1.657,1.122,1.963,1.369,0.545,0.997,0.926,��,6.6,��
2017/04/04,18:50,1.025,1.659,1.120,1.960,1.367,0.546,0.996,0.927,��,6.7,��
2017/04/04,19:00,1.026,1.658,1.123,1.962,1.368,0.546,0.997,0.924,��,7.1,��
2017/04/04,19:10,1.023,1.658,1.120,1.961,1.367,0.545,0.996,0.926,��,6.3,��
2017/04/04,19:20,1.026,1.657,1.121,1.962,1.369,0.545,0.997,0.923,��,4.8,��
2017/04/04,19:30,1.024,1.655,1.124,1.962,1.368,0.544,0.995,0.927,��,4.9,��
2017/04/04,19:40,1.023,1.656,1.119,1.959,1.369,0.545,0.996,0.926,��쐼,4.0,��
2017/04/04,19:50,1.023,1.658,1.122,1.959,1.368,0.546,0.996,0.926,��쐼,3.6,��
2017/04/04,20:00,1.021,1.656,1.119,1.961,1.369,0.545,0.996,0.925,�쐼,3.3,��
2017/04/04,20:10,1.023,1.653,1.120,1.963,1.369,0.545,0.997,0.924,�쐼,2.6,��
2017/04/04,20:20,1.025,1.654,1.119,1.962,1.369,0.546,0.994,0.925,�쐼,2.3,��
2017/04/04,20:30,1.022,1.655,1.118,1.961,1.369,0.546,0.996,0.926,���쐼,3.0,��
2017/04/04,20:40,1.023,1.657,1.120,1.957,1.368,0.545,0.996,0.926,�쐼,3.7,��
2017/04/04,20:50,1.022,1.654,1.121,1.962,1.368,0.545,0.997,0.923,���쐼,3.4,��
2017/04/04,21:00,1.023,1.656,1.119,1.959,1.369,0.544,0.995,0.926,���쐼,3.4,��
2017/04/04,21:10,1.020,1.655,1.121,1.959,1.366,0.545,0.997,0.925,�쐼,3.3,��
2017/04/04,21:20,1.021,1.655,1.121,1.963,1.368,0.544,0.997,0.926,�쐼,3.7,��
2017/04/04,21:30,1.021,1.651,1.119,1.963,1.367,0.544,0.997,0.926,���쐼,5.0,��
2017/04/04,21:40,1.022,1.654,1.120,1.963,1.366,0.544,0.995,0.925,���쐼,4.0,��
2017/04/04,21:50,1.021,1.654,1.119,1.958,1.366,0.544,0.995,0.926,��,3.0,��
2017/04/04,22:00,1.023,1.654,1.120,1.960,1.365,0.542,0.995,0.927,���쐼,2.6,��
2017/04/04,22:10,1.020,1.652,1.118,1.959,1.367,0.544,0.994,0.926,��,3.1,��
2017/04/04,22:20,1.021,1.651,1.117,1.962,1.365,0.543,0.996,0.926,���k��,3.6,��
2017/04/04,22:30,1.021,1.654,1.120,1.961,1.367,0.544,0.996,0.924,���k��,3.6,��
2017/04/04,22:40,1.021,1.654,1.118,1.961,1.366,0.544,0.997,0.925,���k��,4.0,��
2017/04/04,22:50,1.021,1.652,1.118,1.962,1.364,0.543,0.996,0.924,���k��,4.0,��
2017/04/04,23:00,1.021,1.652,1.117,1.961,1.367,0.543,0.994,0.925,��,4.1,��
2017/04/04,23:10,1.021,1.653,1.118,1.958,1.367,0.542,0.995,0.923,��,2.6,��
2017/04/04,23:20,1.021,1.654,1.118,1.960,1.367,0.543,0.995,0.927,��쐼,2.3,��
2017/04/04,23:30,1.020,1.654,1.118,1.960,1.368,0.544,0.995,0.926,��쐼,3.5,��
2017/04/04,23:40,1.019,1.652,1.116,1.961,1.365,0.543,0.995,0.926,��쐼,3.0,��
2017/04/04,23:50,1.021,1.653,1.121,1.960,1.364,0.542,0.995,0.925,��,3.9,��
